N617PB KTRI-KBWI

Flight info

Callsign N617PB
Flight time 0h 57m
Altitude 39000
Route DCT SITTR DCT KEESH ANTHM5
Aircraft B739/M-SDE2E3FGHIRWXY/LB1

Departure

Time 2026-04-28 18:56
Airport Tri-Cities Regional TN/VA Airport (KTRI)

Arrival

Time 2026-04-28 19:53
Airport Baltimore/Washington International Thurgood Marshall Airport (KBWI)
Time Latitude Longitude Altitude Speed Heading
2026-04-28 18:43 36.48210 -82.40565 1531 ft 0 kts 43°
2026-04-28 18:51 36.48231 -82.40537 1530 ft 7 kts 68°
2026-04-28 18:51 36.48197 -82.40457 1525 ft 5 kts 139°
2026-04-28 18:51 36.48192 -82.40452 1524 ft 0 kts 140°
2026-04-28 18:55 36.48185 -82.40443 1524 ft 6 kts 127°
2026-04-28 18:55 36.48231 -82.40292 1514 ft 29 kts 85°
2026-04-28 18:56 36.48105 -82.40121 1502 ft 31 kts 225°
2026-04-28 18:56 36.47697 -82.40585 1511 ft 128 kts 224°
2026-04-28 18:56 36.46868 -82.41543 1873 ft 188 kts 226°
2026-04-28 18:56 36.45882 -82.42688 2977 ft 209 kts 224°
2026-04-28 18:57 36.44816 -82.43900 4162 ft 215 kts 226°
2026-04-28 18:57 36.43715 -82.45174 5205 ft 226 kts 227°
2026-04-28 18:57 36.42548 -82.46516 6212 ft 239 kts 227°
2026-04-28 18:57 36.41318 -82.47932 7174 ft 253 kts 228°
2026-04-28 18:58 36.40002 -82.49461 8104 ft 268 kts 228°
2026-04-28 18:58 36.38646 -82.51026 9136 ft 278 kts 228°
2026-04-28 18:58 36.37237 -82.52649 10264 ft 283 kts 228°
2026-04-28 18:58 36.35755 -82.54360 11123 ft 299 kts 229°
2026-04-28 18:59 36.34211 -82.56148 11890 ft 316 kts 229°
2026-04-28 18:59 36.32565 -82.58054 12649 ft 333 kts 228°
2026-04-28 18:59 36.30625 -82.59777 13334 ft 360 kts 212°
2026-04-28 18:59 36.28152 -82.60696 14017 ft 388 kts 192°
2026-04-28 19:00 36.25385 -82.60631 14680 ft 412 kts 177°
2026-04-28 19:00 36.22498 -82.60031 15251 ft 432 kts 174°
2026-04-28 19:00 36.19501 -82.59299 15873 ft 447 kts 173°
2026-04-28 19:00 36.16441 -82.58532 16861 ft 451 kts 174°
2026-04-28 19:01 36.13379 -82.57477 17638 ft 468 kts 163°
2026-04-28 19:01 36.10580 -82.55349 18502 ft 483 kts 142°
2026-04-28 19:01 36.08404 -82.52181 19483 ft 490 kts 125°
2026-04-28 19:01 36.06739 -82.48471 20293 ft 498 kts 116°
2026-04-28 19:02 36.05695 -82.44384 21004 ft 506 kts 99°
2026-04-28 19:02 36.05689 -82.40050 21665 ft 508 kts 79°
2026-04-28 19:02 36.06767 -82.35956 22314 ft 505 kts 58°
2026-04-28 19:02 36.08811 -82.32463 22989 ft 499 kts 41°
2026-04-28 19:03 36.11317 -82.29507 23605 ft 502 kts 36°
2026-04-28 19:03 36.13921 -82.26649 24395 ft 505 kts 35°
2026-04-28 19:03 36.16555 -82.23795 25184 ft 507 kts 34°
2026-04-28 19:03 36.19235 -82.20906 25742 ft 515 kts 34°
2026-04-28 19:04 36.21918 -82.18013 26541 ft 516 kts 35°
2026-04-28 19:04 36.24620 -82.15097 27258 ft 519 kts 35°
2026-04-28 19:04 36.27334 -82.12164 28079 ft 519 kts 34°
2026-04-28 19:04 36.30030 -82.09244 29063 ft 515 kts 34°
2026-04-28 19:05 36.32713 -82.06335 30066 ft 510 kts 34°
2026-04-28 19:05 36.35352 -82.03471 30919 ft 507 kts 35°
2026-04-28 19:05 36.38009 -82.00590 31531 ft 510 kts 35°
2026-04-28 19:05 36.40684 -81.97690 32115 ft 513 kts 36°
2026-04-28 19:06 36.43380 -81.94766 32705 ft 515 kts 36°
2026-04-28 19:06 36.45151 -81.92841 33080 ft 517 kts 36°
2026-04-28 19:06 36.48782 -81.88890 33919 ft 518 kts 37°
2026-04-28 19:06 36.51453 -81.85980 34623 ft 517 kts 37°
2026-04-28 19:07 36.54162 -81.83022 35415 ft 514 kts 37°
2026-04-28 19:07 36.56850 -81.80086 36121 ft 513 kts 37°
2026-04-28 19:07 36.59499 -81.77189 36814 ft 512 kts 36°
2026-04-28 19:07 36.62192 -81.74239 37518 ft 510 kts 37°
2026-04-28 19:08 36.64854 -81.71325 38076 ft 511 kts 36°
2026-04-28 19:08 36.67583 -81.68338 38544 ft 513 kts 36°
2026-04-28 19:08 36.70305 -81.65353 39040 ft 515 kts 36°
2026-04-28 19:08 36.72994 -81.62403 39118 ft 523 kts 36°
2026-04-28 19:09 36.78466 -81.56383 39117 ft 520 kts 36°
2026-04-28 19:09 36.83832 -81.50460 39125 ft 511 kts 36°
2026-04-28 19:10 36.89164 -81.44579 39139 ft 517 kts 36°
2026-04-28 19:10 36.94564 -81.38605 39150 ft 516 kts 36°
2026-04-28 19:11 36.99935 -81.32646 39145 ft 516 kts 37°
2026-04-28 19:11 37.05286 -81.26711 39127 ft 517 kts 37°
2026-04-28 19:12 37.10653 -81.20739 39120 ft 516 kts 37°
2026-04-28 19:12 37.16046 -81.14732 39120 ft 519 kts 37°
2026-04-28 19:13 37.21410 -81.08738 39117 ft 519 kts 37°
2026-04-28 19:13 37.26796 -81.02706 39115 ft 519 kts 37°
2026-04-28 19:14 37.32162 -80.96688 39117 ft 519 kts 37°
2026-04-28 19:14 37.37550 -80.90634 39109 ft 519 kts 36°
2026-04-28 19:15 37.42901 -80.84605 39100 ft 518 kts 37°
2026-04-28 19:15 37.47351 -80.79586 39100 ft 520 kts 36°
2026-04-28 19:16 37.53634 -80.72488 39096 ft 521 kts 36°
2026-04-28 19:16 37.58989 -80.66418 39102 ft 520 kts 36°
2026-04-28 19:17 37.64383 -80.60294 39099 ft 520 kts 37°
2026-04-28 19:17 37.69732 -80.54210 39097 ft 521 kts 36°
2026-04-28 19:18 37.75112 -80.48080 39096 ft 524 kts 36°
2026-04-28 19:18 37.80515 -80.41908 39106 ft 521 kts 36°
2026-04-28 19:19 37.85860 -80.35793 39114 ft 522 kts 37°
2026-04-28 19:19 37.91242 -80.29629 39114 ft 525 kts 37°
2026-04-28 19:20 37.96650 -80.23408 39113 ft 523 kts 37°
2026-04-28 19:20 38.02049 -80.17189 39092 ft 526 kts 37°
2026-04-28 19:21 38.07410 -80.11001 39085 ft 524 kts 37°
2026-04-28 19:21 38.12793 -80.04774 39066 ft 525 kts 37°
2026-04-28 19:22 38.17300 -79.99556 39084 ft 526 kts 37°
2026-04-28 19:22 38.23610 -79.92231 39082 ft 526 kts 37°
2026-04-28 19:23 38.28984 -79.85973 39089 ft 526 kts 37°
2026-04-28 19:23 38.34350 -79.79719 39063 ft 524 kts 37°
2026-04-28 19:24 38.39716 -79.73455 39066 ft 526 kts 37°
2026-04-28 19:24 38.45104 -79.67145 39065 ft 526 kts 37°
2026-04-28 19:25 38.50473 -79.60844 39070 ft 524 kts 37°
2026-04-28 19:25 38.55825 -79.54552 39064 ft 524 kts 37°
2026-04-28 19:26 38.61196 -79.48225 39068 ft 527 kts 37°
2026-04-28 19:26 38.66528 -79.41927 39068 ft 525 kts 37°
2026-04-28 19:27 38.71904 -79.35562 39062 ft 525 kts 37°
2026-04-28 19:27 38.77262 -79.29212 39063 ft 527 kts 38°
2026-04-28 19:28 38.82609 -79.22853 39056 ft 526 kts 38°
2026-04-28 19:28 38.87997 -79.16435 39039 ft 528 kts 38°
2026-04-28 19:29 38.92434 -79.11137 39056 ft 526 kts 38°
2026-04-28 19:29 38.98725 -79.03612 39055 ft 528 kts 37°
2026-04-28 19:30 39.04042 -78.97240 39048 ft 527 kts 37°
2026-04-28 19:30 39.09404 -78.90807 38717 ft 528 kts 38°
2026-04-28 19:31 39.12100 -78.87567 37791 ft 530 kts 38°
2026-04-28 19:31 39.14761 -78.84362 37039 ft 528 kts 38°
2026-04-28 19:31 39.17443 -78.81126 36317 ft 525 kts 38°
2026-04-28 19:31 39.20078 -78.77941 35464 ft 525 kts 38°
2026-04-28 19:32 39.22743 -78.74720 34519 ft 527 kts 39°
2026-04-28 19:32 39.25404 -78.71502 33591 ft 529 kts 39°
2026-04-28 19:32 39.28085 -78.68256 32807 ft 527 kts 39°
2026-04-28 19:32 39.30761 -78.65009 32069 ft 524 kts 39°
2026-04-28 19:33 39.33375 -78.61832 31355 ft 521 kts 39°
2026-04-28 19:33 39.35986 -78.58655 30609 ft 517 kts 39°
2026-04-28 19:33 39.38576 -78.55456 29778 ft 516 kts 41°
2026-04-28 19:33 39.40961 -78.52021 28811 ft 518 kts 47°
2026-04-28 19:34 39.43061 -78.48234 27659 ft 523 kts 56°
2026-04-28 19:34 39.44705 -78.44101 26260 ft 521 kts 65°
2026-04-28 19:34 39.45943 -78.39722 24938 ft 513 kts 71°
2026-04-28 19:34 39.46818 -78.35352 24117 ft 505 kts 77°
2026-04-28 19:35 39.47210 -78.30891 23380 ft 497 kts 87°
2026-04-28 19:35 39.47150 -78.26459 22545 ft 492 kts 93°
2026-04-28 19:35 39.46794 -78.22131 22003 ft 479 kts 99°
2026-04-28 19:35 39.46109 -78.18019 21630 ft 463 kts 104°
2026-04-28 19:36 39.45354 -78.14066 21349 ft 447 kts 102°
2026-04-28 19:36 39.44946 -78.10157 21053 ft 432 kts 93°
2026-04-28 19:36 39.44877 -78.06360 20795 ft 417 kts 89°
2026-04-28 19:36 39.44915 -78.02637 20386 ft 408 kts 88°
2026-04-28 19:37 39.44967 -77.99006 19757 ft 406 kts 88°
2026-04-28 19:37 39.44995 -77.96615 19376 ft 404 kts 88°
2026-04-28 19:37 39.45032 -77.91817 18597 ft 399 kts 88°
2026-04-28 19:37 39.45050 -77.88265 18033 ft 395 kts 88°
2026-04-28 19:38 39.45060 -77.84745 17469 ft 392 kts 88°
2026-04-28 19:38 39.45063 -77.81252 16881 ft 389 kts 88°
2026-04-28 19:38 39.45061 -77.77743 16339 ft 385 kts 88°
2026-04-28 19:38 39.45056 -77.74353 15732 ft 384 kts 89°
2026-04-28 19:39 39.45041 -77.70898 15201 ft 379 kts 89°
2026-04-28 19:39 39.45009 -77.67525 14623 ft 377 kts 89°
2026-04-28 19:39 39.44972 -77.64166 14174 ft 372 kts 89°
2026-04-28 19:39 39.44935 -77.60871 13930 ft 367 kts 89°
2026-04-28 19:40 39.44899 -77.57554 13696 ft 370 kts 89°
2026-04-28 19:40 39.44863 -77.54200 13456 ft 374 kts 89°
2026-04-28 19:40 39.44827 -77.50857 13221 ft 371 kts 89°
2026-04-28 19:40 39.44789 -77.47526 12980 ft 369 kts 89°
2026-04-28 19:41 39.44750 -77.44218 12740 ft 367 kts 89°
2026-04-28 19:41 39.44710 -77.40970 12502 ft 365 kts 89°
2026-04-28 19:41 39.44670 -77.37669 12256 ft 364 kts 89°
2026-04-28 19:41 39.44670 -77.34425 12009 ft 364 kts 87°
2026-04-28 19:42 39.44788 -77.31175 11683 ft 356 kts 85°
2026-04-28 19:42 39.44940 -77.28020 11335 ft 347 kts 85°
2026-04-28 19:42 39.45080 -77.24993 11146 ft 334 kts 85°
2026-04-28 19:42 39.45165 -77.23013 11008 ft 326 kts 85°
2026-04-28 19:43 39.45324 -77.19212 10783 ft 312 kts 85°
2026-04-28 19:43 39.45443 -77.16389 10438 ft 316 kts 84°
2026-04-28 19:43 39.45560 -77.13567 10036 ft 319 kts 85°
2026-04-28 19:43 39.45674 -77.10729 9816 ft 309 kts 85°
2026-04-28 19:44 39.45782 -77.07999 9554 ft 302 kts 85°
2026-04-28 19:44 39.45890 -77.05279 9149 ft 302 kts 85°
2026-04-28 19:44 39.45995 -77.02600 8763 ft 301 kts 85°
2026-04-28 19:44 39.46100 -76.99902 8385 ft 299 kts 85°
2026-04-28 19:45 39.46202 -76.97254 8046 ft 295 kts 85°
2026-04-28 19:45 39.46289 -76.94620 7703 ft 293 kts 88°
2026-04-28 19:45 39.46045 -76.92022 7356 ft 292 kts 105°
2026-04-28 19:45 39.45042 -76.89764 7006 ft 286 kts 139°
2026-04-28 19:46 39.43418 -76.88429 6815 ft 271 kts 160°
2026-04-28 19:46 39.41630 -76.87785 6487 ft 269 kts 180°
2026-04-28 19:46 39.39766 -76.87913 6145 ft 265 kts 191°
2026-04-28 19:46 39.37947 -76.88214 5813 ft 263 kts 191°
2026-04-28 19:47 39.36157 -76.88472 5466 ft 260 kts 189°
2026-04-28 19:47 39.34367 -76.88715 5134 ft 256 kts 189°
2026-04-28 19:47 39.32614 -76.88946 4812 ft 252 kts 189°
2026-04-28 19:47 39.30884 -76.89164 4495 ft 247 kts 188°
2026-04-28 19:48 39.29191 -76.89378 4220 ft 242 kts 189°
2026-04-28 19:48 39.27541 -76.89596 4078 ft 231 kts 188°
2026-04-28 19:48 39.25971 -76.89803 3937 ft 221 kts 188°
2026-04-28 19:48 39.24466 -76.90000 3761 ft 215 kts 188°
2026-04-28 19:49 39.22980 -76.90195 3507 ft 213 kts 188°
2026-04-28 19:49 39.21507 -76.90365 3269 ft 210 kts 184°
2026-04-28 19:49 39.20089 -76.90080 3053 ft 210 kts 159°
2026-04-28 19:49 39.18995 -76.88838 2863 ft 214 kts 124°
2026-04-28 19:50 39.18407 -76.85120 2529 ft 211 kts 99°
2026-04-28 19:50 39.18288 -76.83266 2371 ft 207 kts 98°
2026-04-28 19:50 39.18187 -76.81413 2109 ft 207 kts 98°
2026-04-28 19:51 39.18077 -76.79571 1821 ft 209 kts 98°
2026-04-28 19:51 39.17978 -76.77707 1534 ft 202 kts 97°
2026-04-28 19:51 39.17880 -76.76012 1275 ft 181 kts 98°
2026-04-28 19:51 39.17791 -76.74454 1041 ft 164 kts 97°
2026-04-28 19:52 39.17711 -76.73076 835 ft 149 kts 98°
2026-04-28 19:52 39.17640 -76.71802 660 ft 136 kts 97°
2026-04-28 19:52 39.17567 -76.70596 469 ft 135 kts 97°
2026-04-28 19:52 39.17498 -76.69411 283 ft 131 kts 96°
2026-04-28 19:53 39.17437 -76.68256 145 ft 124 kts 96°
2026-04-28 19:53 39.17387 -76.67394 139 ft 63 kts 95°
2026-04-28 19:53 39.17357 -76.66894 146 ft 51 kts 94°
2026-04-28 19:53 39.17405 -76.66591 146 ft 30 kts 38°
2026-04-28 19:54 39.17557 -76.66410 146 ft 29 kts 34°
2026-04-28 19:54 39.17728 -76.66266 143 ft 30 kts 32°
2026-04-28 19:54 39.17908 -76.66116 138 ft 26 kts 33°
2026-04-28 19:54 39.18059 -76.65990 133 ft 22 kts 23°
2026-04-28 19:55 39.18205 -76.66029 134 ft 22 kts 336°
2026-04-28 19:55 39.18354 -76.66094 137 ft 21 kts 14°
2026-04-28 19:55 39.18448 -76.65972 135 ft 14 kts
2026-04-28 19:55 39.18501 -76.65942 134 ft 8 kts 49°
2026-04-28 19:56 39.18564 -76.65951 135 ft 10 kts 316°
2026-04-28 19:56 39.18563 -76.65978 135 ft 0 kts 230°